Other Public Products
Issued by NWS Grand Forks, ND

Home | Current Version | Previous Version | Text Only | Print | Product List | Glossary Off
Versions: 1 2 3 4 5 6 7 8 9 10 11 12 13 14 15 16 17 18 19 20 21 22 23 24 25 26 27 28 29 30 31 32 33 34 35 36 37 38 39 40 41 42 43 44 45 46 47 48 49 50

000
FPUS83 KFGF 171131
OPUFGF
PRAIRIE TO PINES WEATHER ROUNDUP
NATIONAL WEATHER SERVICE EASTERN NORTH DAKOTA/GRAND FORKS ND
600 AM CDT WED SEP 17 2014

 **SATELLITE DATA USED TO AUGMENT SKY COVER AT AUTOMATED STATIONS**
 *****  WEATHER ACROSS EASTERN NORTH DAKOTA  *****

CITY           SKY/WX    TMP DP  RH WIND       PRES   REMARKS
GRAND FORKS    PTCLDY    45  42  89 CALM      29.92R
GRAND FORKS AF CLEAR     47  45  93 NW1       29.92R
GRAND CITY NWS   N/A     45 N/A N/A MISG        N/A
BUXTON           N/A     47  46  98 W2          N/A
DEVILS LAKE    CLEAR     46  39  76 N8        29.92R
FARGO          CLEAR     46  44  93 CALM      29.90R
WAHPETON ARPT  SUNNY     45  43  93 CALM      29.91S
$$

 *****  WEATHER ACROSS CENTRAL AND WESTERN NORTH DAKOTA  *****

CITY           SKY/WX    TMP DP  RH WIND       PRES   REMARKS
JAMESTOWN      CLEAR     43  40  89 CALM      29.91S
BISMARCK       CLEAR     38  37  97 CALM      29.95R
MINOT          CLEAR     49  41  74 SW12      29.91S
MINOT AFB      CLEAR     42  40  95 W7        29.91F
GARRISON         N/A     41  38  89 N3        29.93S
WILLISTON      CLEAR     39  35  86 CALM      29.93S
DICKINSON      CLEAR     42  38  85 CALM      29.93S
HETTINGER      CLEAR     39  37  92 CALM      29.95S
$$

 *****  OTHER OBSERVATIONS NORTHEAST NORTH DAKOTA  *****

CITY           SKY/WX    TMP DP  RH WIND       PRES   REMARKS
WALHALLA       FAIR      45  45 100 N8        29.97R
LANGDON        FAIR      45  45 100 NE10G16   29.95R
CAVALIER       FAIR      46  45  93 N10       29.95R
GRAFTON        FAIR      48  43  81 NW7       29.92S
CANDO          FAIR      39  37  93 N9        29.95R
FORT TOTTEN      N/A     46  43  89 CALM      29.95S
ROLLA          FAIR      41  41 100 N7        29.98R FOG
RUGBY          FAIR      43  43 100 CALM      29.94R
 ***** THE ABOVE OBSERVATIONS ARE NON NWS ARE NOT QUALITY
        CONTROLLED AND MAY MIS-REPORT RAIN FOR SNOW...
$$

 *****  OTHER OBSERVATIONS SOUTHEAST NORTH DAKOTA *****

CITY           SKY/WX    TMP DP  RH WIND       PRES   REMARKS
COOPERSTOWN    NOT AVBL
VALLEY CITY    FAIR      43  43 100 CALM      29.92R
OAKES          FOG       41  41 100 S3        29.91S VSB 1/4
GWINNER        SUNNY     48  48 100 W7        29.92S
SHEYENNE NWR     N/A     43  43  99 W2        29.95S
BUFFALO          N/A     41  40  93 N7          N/A
WYNDMERE         N/A     48  52 100 W3          N/A
 ***** THE ABOVE OBSERVATIONS ARE NON NWS ARE NOT QUALITY
       CONTROLLED AND MAY MIS-REPORT RAIN FOR SNOW...
$$

  *****  WEATHER ACROSS NORTHERN MINNESOTA  *****

CITY           SKY/WX    TMP DP  RH WIND       PRES   REMARKS
FLAG ISLAND    CLOUDY    48  45  87 NE14      29.93R
WARROAD        CLOUDY    48  45  87 CALM      29.92S
ROSEAU         CLOUDY    46  41  81 CALM      29.92
HALLOCK        PTCLDY    43  39  87 NW6       29.92R
THF RVR FALLS  PTCLDY    46  43  87 CALM      29.92S
HALSTAD          N/A     42  41  97 E3          N/A
FOSSTON        PTCLDY    41  39  93 CALM      29.92S
BAUDETTE       CLOUDY    48  45  89 NW3       29.91R
WASKISH        PTCLDY    43  41  93 CALM      29.92S
CROOKSTON      CLEAR     45  43  93 NE6       29.93R
$$
  *****  WEATHER ACROSS CENTRAL AND WEST MINNESOTA  *****

CITY           SKY/WX    TMP DP  RH WIND       PRES   REMARKS
BEMIDJI        PTCLDY    39  37  94 CALM      29.91S
PARK RAPIDS    CLEAR     43  40  89 NE3       29.92R
WADENA         CLEAR     41  39  93 CALM      29.92R
DETROIT LAKES  CLEAR     46  45  93 CALM      29.93R
MOORHEAD       CLEAR     46  46 100 CALM      29.91S
FERGUS FALLS   CLEAR     52  45  76 SE3       29.92S
ELBOW LAKE     FAIR      49  47  91 SE5       29.91S
MORRIS MN      CLEAR     46  45  93 SE6       29.90S
STAPLES        CLEAR     41  41 100 CALM      29.92S
WHEATON        CLEAR     41  39  93 CALM      29.93R
$$
  *****  WEATHER ELSEWHERE ACROSS MINNESOTA  *****

CITY           SKY/WX    TMP DP  RH WIND       PRES   REMARKS
DULUTH         PTCLDY    48  41  76 W6        29.92S
INTRNTL FALLS  CLOUDY    49  45  86 CALM      29.90R
ELY            MOCLDY    48  45  87 CALM      29.93R
CLOQUET        FAIR      46  41  81 SW5       29.92S
BRAINERD       CLEAR     42  41  96 CALM      29.93S FOG
HIBBING        PTCLDY    37  35  92 CALM      29.92R FOG
ALEXANDRIA     CLEAR     49  46  90 CALM      29.93S
SAINT CLOUD    PTCLDY    49  46  90 CALM      29.93S
MINNEAPOLIS    CLOUDY    57  47  69 S6        29.95S
$$

  *****  WEATHER ACROSS SOUTH DAKOTA  *****

CITY           SKY/WX    TMP DP  RH WIND       PRES   REMARKS
SIOUX FALLS    PTCLDY    51  48  89 SE3       29.91F
BROOKINGS      NOT AVBL
WATERTOWN      CLEAR     49  47  93 CALM      29.91S
HURON          CLEAR     48  47  96 SE3       29.89F
SISSETON         N/A     51  50  96 W5        29.89S
ABERDEEN       FOG       39  39 100 CALM      29.92R VSB 1/4
MITCHELL       CLEAR     48  47  96 SE5       29.90S
PIERRE         CLEAR     47  46  97 N5        29.88S
MOBRIDGE       CLEAR     46  45  96 NE3       29.90S
RAPID CITY     CLEAR     52  40  63 NW8       29.94S
$$

  *****  SOME WEATHER IN NEARBY STATES *****

CITY           SKY/WX    TMP DP  RH WIND       PRES   REMARKS
GLASGOW MT     PTCLDY    54  41  61 E12       29.88F
GREAT FALLS MT MOCLDY    57  46  66 S5        29.90F
CHEYENNE WY    CLEAR     54  36  50 W5        30.12S
SCOTTSBLUFF NE PTCLDY    51  47  86 N6        29.97F
OMAHA NE       PTCLDY    59  53  80 SE3       29.94S
DES MOINES IA  CLOUDY    58  50  75 SE7       29.97F
DAVENPORT IA   MOCLDY    46  42  86 SE6       30.03F
CHICAGO IL     PTCLDY    50  45  83 CALM      30.04S
EAU CLAIRE WI  CLOUDY    44  42  93 CALM      29.97S
LA CROSSE WI   CLOUDY    49  46  90 SE6       30.00S
$$

  *****  SOME NATIONAL WEATHER *****

CITY           SKY/WX    TMP DP  RH WIND       PRES   REMARKS
LA GUARDIA NY  PTCLDY    60  50  69 CALM      30.04R
RALEIGH NC     CLOUDY    67  62  84 NE6       29.98R
ATLANTA GA     PTCLDY    68  64  87 NW10      29.98R
NEW ORLEANS LA MOCLDY    73  70  90 W6        29.96S
OKLAHOMA CITY  PTCLDY    70  67  90 S6        29.97S
ALBUQUERQUE NM CLOUDY    62  55  77 CALM      30.17F
SALT LAKE CITY PTCLDY    71  43  36 S14       29.94S
LOS ANGELES CA CLEAR     74  64  71 CALM      29.71F
BOISE ID       CLOUDY    72  42  34 SE12      29.82S
SEATTLE WA     CLOUDY    61  55  81 W5        29.83F
$$

*** WEATHER ACROSS MANITOBA...SASKATCHEWAN AND ONTARIO ***
                ***ONTARIO***

CITY           SKY/WX    TMP DP  RH WIND       PRES   REMARKS
GERALDTON      LGT SNOW  30  30 100 E2        30.03F
THUNDER BAY    LGT RAIN  43  39  87 E15G21    29.94F
SIOUX LOOKOUT  CLOUDY    36  34  93 NE6       29.99S
TORONTO        PTCLDY    48  43  81 W7        30.03S
BIG TROUT LK   CLOUDY    34  23  64 N6        30.07R
PICKLE LAKE    MOCLDY    30  28  93 CALM      30.05
DRYDEN         CLOUDY    37  37 100 NE13      29.97R
KENORA         CLOUDY    39  37  93 E9        29.97R
$$
                *** MANITOBA***

CITY           SKY/WX    TMP DP  RH WIND       PRES   REMARKS
BRANDON        CLOUDY    43  43 100 NE15      30.01R
DAUPHIN        CLOUDY    43  41  93 E9        30.06R
ISLAND LAKE    PTCLDY    28  27  93 N6        30.13R WCI  22
PILOT MOUND      N/A     45  43  93 NE9         N/A
THE PAS        MOCLDY    34  32  93 E5        30.14R
THOMPSON       NOT AVBL
WINNIPEG       CLOUDY    43  41  93 NE14      30.00R
LYNN LAKE      CLEAR     23  21  93 CALM      30.17R
CHURCHILL      FLURRIES  32  25  74 N20       30.11R WCI  20
$$
                ***SASKATCHEWAN***

CITY           SKY/WX    TMP DP  RH WIND       PRES   REMARKS
ESTEVAN        CLEAR     43  39  87 SW3       29.93S
KINDERSLEY     CLEAR     46  43  87 E8        29.89S
LLOYDMINSTER   CLOUDY    45  43  93 SE13      29.89S FOG
PRINCE ALBERT  CLOUDY    39  37  93 E10       30.03  FOG
REGINA         PTCLDY    46  45  93 E10       29.93R
YORKTON        CLOUDY    45  43  93 E14       30.01S



USA.gov is the U.S. government's official web portal to all federal, state and local government web resources and services.